Location: Krakow
(50.0830°N, 19.9170°E)
Time: 18:03:29
(UTC+02:00)

ISS - Visible Passes

Search period start: 14 May 2026 00:00
Search period end: 24 May 2026 00:00
Orbit: 414 x 424 km, 51.6° (Epoch: 14 May)

Date Brightness Start Highest point End Pass type
(mag) Time Alt. Az. Time Alt. Az. Time Alt. Az.
14 May -3.7 20:58:55 10° WSW 21:02:16 84° NNW 21:05:38 10° ENE visible
14 May -3.5 22:35:52 10° WNW 22:39:13 67° N 22:41:24 20° E visible
15 May -2.1 00:12:44 10° WNW 00:14:19 25° W 00:14:19 25° W visible
15 May -3.4 21:48:11 10° W 21:51:31 64° N 21:54:51 10° E visible
15 May -3.8 23:25:04 10° WNW 23:28:15 70° SW 23:28:15 70° SW visible
16 May -3.4 21:00:29 10° W 21:03:48 66° N 21:07:08 10° E visible
16 May -3.9 22:37:23 10° WNW 22:40:44 89° NNE 22:42:10 32° ESE visible
17 May -1.3 00:14:25 10° W 00:15:06 14° W 00:15:06 14° W visible
17 May -3.6 21:49:42 10° WNW 21:53:03 75° N 21:56:05 12° E visible
17 May -2.7 23:26:36 10° W 23:29:01 33° WSW 23:29:01 33° WSW visible
18 May -3.4 21:02:00 10° WNW 21:05:20 67° N 21:08:40 10° E visible
18 May -3.6 22:38:51 10° WNW 22:42:07 53° SSW 22:42:57 40° SSE visible
19 May -3.8 21:51:07 10° WNW 21:54:28 72° SSW 21:56:52 17° ESE visible
19 May -1.6 23:28:27 10° W 23:29:48 16° WSW 23:29:48 16° WSW visible
20 May -3.7 21:03:24 10° WNW 21:06:46 89° NNE 21:10:07 10° ESE visible
20 May -2.5 22:40:26 10° W 22:43:19 26° SW 22:43:45 26° SSW visible
21 May -3.0 21:52:34 10° W 21:55:43 38° SSW 21:57:43 18° SSE visible
22 May -1.4 22:42:46 10° WSW 22:44:17 13° SW 22:44:38 12° SW visible
23 May -1.8 21:54:20 10° W 21:56:45 19° SW 21:58:39 12° S visible
